GW7166 Weather Reports


time (UTC)temp
C
wind
direction
speed
KPH
gust
KPH
rain 1hr
cm
rain 24hr
cm
rain mn
cm
humidity
%
barometer
mb
20260506201238 11 0 1.6 6.4 0.05 0.56 0.56 92 1008.2
20260506200735 11 353 3.2 6.4 0.13 0.56 0.56 92 1008.0
20260506200232 12 306 4.8 4.8 0.13 0.56 0.56 91 1008.2
20260506195728 12 346 9.7 9.7 0.05 0.53 0.53 90 1007.8
20260506195224 13 285 4.8 9.7 0.00 0.53 0.53 88 1007.8
20260506194722 14 312 8.0 11.3 0.00 0.53 0.53 85 1007.5
20260506194218 15 298 8.0 9.7 0.00 0.53 0.53 84 1007.2
20260506193716 16 339 3.2 3.2 0.00 0.53 0.53 89 1007.1
20260506193213 16 190 3.2 4.8 0.00 0.53 0.53 87 1007.0
20260506192709 15 167 3.2 3.2 0.00 0.53 0.53 89 1007.1
20260506192206 15 141 4.8 4.8 0.00 0.53 0.53 91 1007.1
20260506191703 15 136 1.6 3.2 0.00 0.53 0.53 91 1007.0
20260506191159 15 144 3.2 4.8 0.00 0.53 0.53 91 1007.1
20260506190657 15 133 3.2 3.2 0.00 0.53 0.53 90 1007.2
20260506190153 15 177 3.2 4.8 0.00 0.53 0.53 90 1007.2
20260506185650 15 150 3.2 4.8 0.00 0.53 0.53 87 1007.2
20260506185146 15 145 3.2 4.8 0.00 0.53 0.53 88 1007.2
20260506184644 15 154 3.2 3.2 0.00 0.53 0.53 88 1007.3
20260506184141 16 185 3.2 6.4 0.00 0.53 0.53 86 1007.3
20260506183637 15 172 3.2 4.8 0.00 0.53 0.53 87 1007.4
20260506183133 15 180 4.8 6.4 0.00 0.53 0.53 88 1007.2
20260506182631 15 147 3.2 4.8 0.00 0.53 0.53 89 1007.5
20260506182128 15 181 3.2 4.8 0.00 0.53 0.53 88 1007.4
20260506181626 15 186 4.8 4.8 0.00 0.53 0.53 88 1007.3
20260506181123 15 165 3.2 9.7 0.00 0.53 0.53 87 1007.4
20260506180620 15 199 6.4 6.4 0.00 0.53 0.53 88 1007.3
20260506180116 15 189 3.2 6.4 0.00 0.53 0.53 88 1007.5
20260506175612 15 169 3.2 6.4 0.00 0.53 0.53 89 1007.6
20260506175108 15 159 3.2 3.2 0.00 0.53 0.53 90 1007.4
20260506174608 15 185 3.2 6.4 0.00 0.53 0.53 89 1007.4
20260506174103 15 156 3.2 8.0 0.00 0.53 0.53 88 1007.5
20260506173601 15 171 6.4 6.4 0.00 0.53 0.53 90 1007.4
20260506173058 15 170 3.2 4.8 0.00 0.53 0.53 91 1007.5
20260506172555 15 137 3.2 6.4 0.00 0.53 0.53 89 1007.6
20260506172051 15 159 3.2 6.4 0.00 0.53 0.53 90 1007.4
20260506171549 15 149 4.8 8.0 0.00 0.53 0.53 91 1007.6
20260506171047 15 146 3.2 6.4 0.00 0.53 0.53 91 1007.5
20260506170544 15 217 11.3 12.9 0.00 0.53 0.53 91 1007.4
20260506170041 15 193 4.8 9.7 0.00 0.53 0.53 92 1007.5
20260506165540 15 176 3.2 6.4 0.00 0.53 0.53 93 1007.2
20260506165035 15 171 3.2 8.0 0.00 0.53 0.53 93 1007.5
20260506164532 15 156 3.2 8.0 0.00 0.53 0.53 92 1007.7
20260506164030 15 184 4.8 8.0 0.00 0.53 0.53 92 1007.8
20260506163526 15 183 3.2 8.0 0.00 0.53 0.53 91 1007.8
20260506163021 15 143 3.2 6.4 0.00 0.53 0.53 91 1007.8
20260506162518 15 189 4.8 8.0 0.00 0.53 0.53 91 1007.8
20260506162015 15 223 6.4 6.4 0.00 0.53 0.53 92 1008.0
20260506161513 15 149 3.2 8.0 0.00 0.53 0.53 92 1007.8
20260506161009 15 207 1.6 9.7 0.00 0.53 0.53 90 1007.8
20260506160507 15 190 4.8 6.4 0.00 0.53 0.53 91 1008.0
20260506160004 15 197 4.8 6.4 0.00 0.53 0.53 91 1007.8
20260506155502 15 173 3.2 4.8 0.00 0.53 0.53 92 1007.8
20260506153628 15 164 3.2 8.0 0.13 0.51 0.51 91 1007.9
20260506153125 15 175 3.2 6.4 0.13 0.51 0.51 91 1007.9
20260506152622 14 196 8.0 12.9 0.18 0.51 0.51 91 1007.9
20260506152120 14 188 6.4 12.9 0.18 0.48 0.48 92 1007.9
20260506151619 14 164 3.2 6.4 0.05 0.46 0.46 92 1007.9
20260506151115 14 183 4.8 4.8 0.05 0.46 0.46 93 1007.8
20260506150612 14 197 6.4 6.4 0.05 0.46 0.46 92 1007.9
20260506150109 14 197 6.4 6.4 0.13 0.46 0.46 91 1007.8
20260506145606 14 190 4.8 8.0 0.05 0.43 0.43 91 1008.0
20260506145103 14 185 4.8 6.4 0.00 0.43 0.43 92 1007.8
20260506144559 14 186 4.8 6.4 0.00 0.43 0.43 92 1007.6
20260506144056 14 197 3.2 6.4 0.00 0.43 0.43 91 1007.9
20260506143554 14 145 9.7 12.9 0.00 0.43 0.43 92 1007.8
20260506143052 14 180 3.2 6.4 0.05 0.43 0.43 92 1007.9
20260506142549 13 147 3.2 8.0 0.05 0.43 0.43 93 1007.8
20260506142048 14 150 3.2 6.4 0.00 0.43 0.43 93 1008.2
20260506141545 13 183 4.8 6.4 0.00 0.43 0.43 92 1007.7
20260506141044 13 146 3.2 8.0 0.05 0.43 0.43 92 1007.9
20260506140541 13 161 3.2 8.0 0.13 0.43 0.43 93 1007.5
20260506140038 13 193 4.8 8.0 0.18 0.41 0.41 93 1007.8
20260506135535 13 126 3.2 4.8 0.30 0.41 0.41 93 1007.8
20260506135031 13 121 6.4 6.4 0.30 0.38 0.38 92 1007.8
20260506134527 13 146 3.2 4.8 0.23 0.36 0.36 92 1008.2
20260506134023 13 138 6.4 8.0 0.13 0.33 0.33 92 1008.4
20260506133521 13 171 3.2 6.4 0.18 0.30 0.30 92 1008.5
20260506133018 13 142 3.2 8.0 0.23 0.30 0.30 92 1008.2
20260506132515 13 164 0.0 3.2 0.23 0.28 0.28 91 1008.7
20260506132012 13 208 4.8 6.4 0.13 0.25 0.25 90 1008.6
20260506131509 13 135 3.2 4.8 0.18 0.23 0.23 91 1008.7
20260506131005 13 212 0.0 3.2 0.18 0.23 0.23 91 1008.9
20260506130502 13 139 4.8 8.0 0.18 0.20 0.20 90 1009.0
20260506125959 13 120 3.2 6.4 0.18 0.18 0.18 91 1008.9
20260506125458 13 230 3.2 4.8 0.23 0.18 0.18 93 1009.0
20260506124955 13 141 1.6 3.2 0.13 0.15 0.15 92 1009.1
20260506124453 13 107 3.2 4.8 0.05 0.13 0.13 92 1008.9
20260506123951 13 124 3.2 3.2 0.13 0.13 0.13 91 1009.0
20260506123449 13 184 0.0 4.8 0.05 0.10 0.10 91 1008.9
20260506122946 13 146 3.2 3.2 0.05 0.10 0.10 90 1008.5
20260506122442 13 112 1.6 3.2 0.05 0.10 0.10 89 1008.4
20260506121941 13 173 0.0 0.0 0.05 0.10 0.10 89 1008.3
20260506121438 13 120 0.0 3.2 0.05 0.10 0.10 90 1008.3
20260506120934 13 119 3.2 3.2 0.05 0.10 0.10 90 1008.4
20260506120432 13 58 0.0 1.6 0.00 0.08 0.08 91 1008.3
20260506115929 13 89 1.6 1.6 0.00 0.08 0.08 89 1008.5
20260506115427 13 80 0.0 1.6 0.05 0.08 0.08 88 1008.5
20260506114925 13 89 0.0 3.2 0.05 0.08 0.08 86 1008.5
20260506114422 13 134 1.6 3.2 0.00 0.08 0.08 86 1008.6
20260506113921 13 139 3.2 3.2 0.00 0.08 0.08 84 1008.6
20260506113418 13 97 1.6 3.2 0.05 0.08 0.08 87 1008.5
20260506112914 13 135 0.0 1.6 0.13 0.08 0.08 86 1008.5
20260506112413 13 118 1.6 1.6 0.13 0.05 0.05 86 1008.4
20260506111910 13 57 1.6 3.2 0.05 0.05 0.05 85 1008.5
20260506111408 13 104 0.0 3.2 0.05 0.05 0.05 84 1008.4
20260506110904 13 4 0.0 1.6 0.05 0.03 0.03 83 1008.6
20260506110402 13 99 3.2 3.2 0.13 0.03 0.03 81 1008.5
20260506105858 14 106 3.2 4.8 0.13 0.03 0.03 78 1008.5
20260506105355 15 128 8.0 8.0 0.00 0.00 0.00 74 1008.5
20260506104852 15 269 0.0 3.2 0.00 0.00 0.00 71 1008.5
20260506104350 15 213 3.2 4.8 0.00 0.00 0.00 71 1008.5
20260506103847 15 201 3.2 3.2 0.00 0.00 0.00 69 1008.5
20260506103345 15 202 0.0 3.2 0.00 0.00 0.00 68 1008.2
20260506102842 15 142 0.0 3.2 0.00 0.00 0.00 66 1008.0
20260506102340 16 149 6.4 6.4 0.00 0.00 0.00 61 1007.9
20260506101837 16 140 1.6 3.2 0.00 0.00 0.00 58 1007.9
20260506101333 16 66 0.0 1.6 0.00 0.00 0.00 57 1008.0
20260506100831 16 333 0.0 1.6 0.00 0.00 0.00 57 1008.0
20260506100329 16 309 0.0 1.6 0.00 0.00 0.00 58 1007.9
20260506095827 16 18 0.0 1.6 0.00 0.00 0.00 59 1007.6
20260506095324 16 109 1.6 1.6 0.00 0.00 0.00 60 1007.9
20260506094821 16 95 0.0 3.2 0.00 0.00 0.00 59 1008.0
20260506094319 16 141 3.2 3.2 0.00 0.00 0.00 58 1007.8
20260506093817 16 161 1.6 3.2 0.00 0.00 0.00 58 1008.0
20260506093314 16 205 1.6 3.2 0.00 0.00 0.00 57 1008.0
20260506092812 16 209 3.2 3.2 0.00 0.00 0.00 57 1007.7
20260506092309 16 174 1.6 3.2 0.00 0.00 0.00 57 1007.7
20260506091806 16 89 0.0 3.2 0.00 0.00 0.00 58 1007.6
20260506091304 16 142 0.0 3.2 0.00 0.00 0.00 59 1008.0
20260506090802 16 142 0.0 3.2 0.00 0.00 0.00 60 1007.8
20260506090258 16 121 1.6 3.2 0.00 0.00 0.00 60 1007.8
20260506085755 16 120 3.2 3.2 0.00 0.00 0.00 58 1007.7
20260506085251 16 164 3.2 4.8 0.00 0.00 0.00 55 1007.8
20260506084748 17 220 1.6 3.2 0.00 0.00 0.00 55 1007.7
20260506084244 17 141 0.0 3.2 0.00 0.00 0.00 55 1007.8
20260506083741 17 147 1.6 4.8 0.00 0.00 0.00 55 1007.7
20260506083239 16 188 3.2 4.8 0.00 0.00 0.00 55 1008.0
20260506082737 16 224 0.0 3.2 0.00 0.00 0.00 60 1007.9
20260506082231 16 190 0.0 4.8 0.00 0.00 0.00 58 1008.2
20260506081730 17 133 3.2 4.8 0.00 0.00 0.00 59 1008.0
20260506081227 17 206 3.2 6.4 0.00 0.00 0.00 55 1007.9
20260506080725 17 192 4.8 6.4 0.00 0.00 0.00 56 1007.9
20260506080221 16 198 3.2 4.8 0.00 0.00 0.00 58 1008.2
20260506073205 16 178 3.2 3.2 0.00 0.00 0.00 64 1007.9
20260506072702 15 157 3.2 4.8 0.00 0.00 0.00 66 1007.7
20260506072159 15 132 3.2 3.2 0.00 0.00 0.00 70 1008.3
20260506071657 15 154 3.2 3.2 0.00 0.00 0.00 72 1008.2
20260506071155 14 114 0.0 3.2 0.00 0.00 0.00 77 1008.3
20260506070651 14 127 1.6 3.2 0.00 0.00 0.00 77 1008.5
20260506070148 14 129 0.0 3.2 0.00 0.00 0.00 76 1008.3
20260506062126 15 124 4.8 4.8 0.00 0.00 0.00 70 1009.0
20260506061621 15 99 1.6 3.2 0.00 0.00 0.00 70 1008.9
20260506061119 15 120 3.2 3.2 0.00 0.00 0.00 69 1008.9
20260506060618 15 129 3.2 4.8 0.00 0.00 0.00 69 1008.9
20260506060114 15 124 3.2 4.8 0.00 0.00 0.00 68 1008.8
20260506051046 15 143 0.0 4.8 0.00 0.00 0.00 66 1009.6
20260506050544 16 109 1.6 4.8 0.00 0.00 0.00 66 1009.5
20260506045034 16 119 4.8 4.8 0.00 0.00 0.00 63 1009.6
20260506044532 17 32 0.0 4.8 0.00 0.00 0.00 62 1009.4
20260506044029 17 127 0.0 1.6 0.00 0.00 0.00 60 1009.4
20260506043526 17 139 0.0 1.6 0.00 0.00 0.00 60 1009.3
20260506043024 17 130 0.0 3.2 0.00 0.00 0.00 59 1009.1
20260506042523 17 9 0.0 3.2 0.00 0.00 0.00 61 1009.0
20260506042021 17 94 1.6 3.2 0.00 0.00 0.00 61 1009.1
20260506041519 17 118 3.2 4.8 0.00 0.00 0.00 60 1009.5
20260506041016 17 110 3.2 3.2 0.00 0.00 0.00 59 1009.3
20260506040514 17 101 3.2 3.2 0.00 0.00 0.00 60 1009.3
20260506040009 17 75 1.6 1.6 0.00 0.00 0.00 60 1009.3
20260506035506 17 95 1.6 1.6 0.00 0.00 0.00 60 1009.5
20260506035003 17 69 0.0 1.6 0.00 0.00 0.00 60 1009.4
20260506034501 17 50 0.0 1.6 0.00 0.00 0.00 60 1009.5
20260506033957 17 89 0.0 0.0 0.00 0.00 0.00 61 1009.3
20260506033455 17 108 3.2 3.2 0.00 0.00 0.00 61 1009.6
20260506032951 17 91 0.0 3.2 0.00 0.00 0.00 60 1009.4
20260506032449 17 110 3.2 4.8 0.00 0.00 0.00 60 1009.2
20260506031945 17 89 0.0 4.8 0.00 0.00 0.00 59 1009.4
20260506031443 17 136 3.2 3.2 0.00 0.00 0.00 58 1009.1
20260506030940 17 127 0.0 3.2 0.00 0.00 0.00 57 1009.3
20260506030438 17 116 3.2 3.2 0.00 0.00 0.00 56 1009.3
20260506025934 18 127 0.0 3.2 0.00 0.00 0.00 55 1009.4
20260506025431 18 137 1.6 1.6 0.00 0.00 0.00 54 1009.4
20260506024928 18 129 0.0 0.0 0.00 0.00 0.00 54 1009.2
20260506024425 18 154 1.6 1.6 0.00 0.00 0.00 53 1009.2
20260506023921 18 280 0.0 0.0 0.00 0.00 0.00 52 1009.5
20260506023418 19 224 0.0 0.0 0.00 0.00 0.00 51 1009.5
20260506022914 19 212 0.0 0.0 0.00 0.00 0.00 51 1009.4
20260506022412 19 235 0.0 0.0 0.00 0.00 0.00 51 1009.3
20260506021910 19 329 0.0 0.0 0.00 0.00 0.00 51 1009.4
20260506021407 19 230 0.0 0.0 0.00 0.00 0.00 51 1009.3
20260506020903 19 141 0.0 0.0 0.00 0.00 0.00 51 1009.2
20260506020402 20 182 0.0 3.2 0.00 0.00 0.00 50 1009.4
20260506015859 19 326 0.0 1.6 0.00 0.00 0.00 50 1009.2
20260506015356 20 147 1.6 1.6 0.00 0.00 0.00 49 1009.4
20260506014853 20 129 0.0 1.6 0.00 0.00 0.00 49 1009.4
20260506014350 20 225 0.0 1.6 0.00 0.00 0.00 48 1009.3
20260506013846 20 124 0.0 3.2 0.00 0.00 0.00 49 1009.3
20260506013344 20 174 0.0 1.6 0.00 0.00 0.00 48 1009.2
20260506012840 20 157 0.0 3.2 0.00 0.00 0.00 47 1009.1
20260506012337 20 199 0.0 0.0 0.00 0.00 0.00 46 1009.4
20260506011834 20 229 0.0 1.6 0.00 0.00 0.00 45 1009.1
20260506011331 21 248 0.0 1.6 0.00 0.00 0.00 45 1009.0
20260506010828 21 217 0.0 0.0 0.00 0.00 0.00 45 1008.9
20260506010326 20 286 0.0 0.0 0.00 0.00 0.00 45 1009.0
20260506005823 20 135 0.0 0.0 0.00 0.00 0.00 46 1008.6
20260506005320 21 129 0.0 1.6 0.00 0.00 0.00 45 1008.7
20260506004816 21 113 0.0 3.2 0.00 0.00 0.00 45 1008.6
20260506004314 21 137 0.0 0.0 0.00 0.00 0.00 44 1008.6
20260506003809 21 142 0.0 1.6 0.00 0.00 0.00 45 1008.7
20260506003306 21 157 0.0 0.0 0.00 0.00 0.00 44 1008.8
20260506002802 21 164 0.0 1.6 0.00 0.00 0.00 43 1008.5
20260506002259 22 117 0.0 1.6 0.00 0.00 0.00 42 1008.5
20260506001754 22 178 1.6 3.2 0.00 0.00 0.00 42 1008.5
20260506001252 22 173 0.0 3.2 0.00 0.00 0.00 42 1008.5
20260506000749 22 240 0.0 3.2 0.00 0.00 0.00 42 1008.6
20260506000247 22 278 1.6 3.2 0.00 0.00 0.00 41 1008.4
20260505235743 22 240 0.0 3.2 0.00 0.00 0.00 40 1008.3
20260505235241 22 217 0.0 3.2 0.00 0.00 0.00 40 1008.5
20260505234737 22 311 0.0 3.2 0.00 0.00 0.00 40 1008.3
20260505234235 22 332 1.6 4.8 0.00 0.00 0.00 41 1008.4
20260505233731 22 246 0.0 0.0 0.00 0.00 0.00 41 1008.5
20260505233230 22 164 0.0 0.0 0.00 0.00 0.00 41 1008.0
20260505232726 22 164 0.0 3.2 0.00 0.00 0.00 42 1008.2
20260505232224 22 165 0.0 1.6 0.00 0.00 0.00 41 1008.0
20260505231720 22 175 0.0 3.2 0.00 0.00 0.00 41 1008.0
20260505231220 22 184 0.0 3.2 0.00 0.00 0.00 43 1007.7
20260505230717 22 161 1.6 1.6 0.00 0.00 0.00 41 1008.2
20260505230213 23 193 1.6 3.2 0.00 0.00 0.00 41 1008.0
20260505225710 22 216 3.2 3.2 0.00 0.00 0.00 40 1008.2
20260505225207 22 220 3.2 3.2 0.00 0.00 0.00 40 1007.9
20260505224702 23 193 0.0 1.6 0.00 0.00 0.00 41 1007.8
20260505224200 23 186 3.2 3.2 0.00 0.00 0.00 38 1008.0
20260505223658 23 182 3.2 3.2 0.00 0.00 0.00 39 1007.8
20260505223153 23 176 0.0 4.8 0.00 0.00 0.00 38 1007.9
20260505222650 23 194 3.2 4.8 0.00 0.00 0.00 37 1007.5
20260505222146 23 198 4.8 6.4 0.00 0.00 0.00 37 1007.7
20260505221643 23 219 3.2 4.8 0.00 0.00 0.00 37 1007.5
20260505221140 24 217 4.8 4.8 0.00 0.00 0.00 37 1007.5
20260505220637 24 199 4.8 9.7 0.00 0.00 0.00 36 1007.4
20260505220135 24 203 3.2 9.7 0.00 0.00 0.00 35 1007.6
20260505215632 24 200 6.4 6.4 0.00 0.00 0.00 36 1007.6
20260505215130 24 190 6.4 9.7 0.00 0.00 0.00 35 1007.5
20260505214628 24 155 4.8 8.0 0.00 0.00 0.00 37 1007.3
20260505214125 25 204 6.4 11.3 0.00 0.00 0.00 36 1007.3
20260505213622 25 198 6.4 12.9 0.00 0.00 0.00 36 1007.1
20260505213118 25 230 14.5 19.3 0.00 0.00 0.00 35 1007.6
20260505212615 25 215 9.7 9.7 0.00 0.00 0.00 36 1007.5
20260505212113 25 203 6.4 12.9 0.00 0.00 0.00 36 1007.0
20260505211609 25 206 9.7 19.3 0.00 0.00 0.00 35 1007.1
20260505211107 26 221 9.7 9.7 0.00 0.00 0.00 34 1007.2
20260505210603 26 208 8.0 14.5 0.00 0.00 0.00 33 1007.3
20260505210100 26 182 3.2 8.0 0.00 0.00 0.00 35 1007.1
20260505205558 26 163 3.2 9.7 0.00 0.00 0.00 34 1007.1
20260505205055 26 160 8.0 12.9 0.00 0.00 0.00 33 1007.1
20260505204552 26 182 4.8 12.9 0.00 0.00 0.00 34 1007.0
20260505204049 26 195 3.2 8.0 0.00 0.00 0.00 34 1006.8
20260505203546 27 220 9.7 11.3 0.00 0.00 0.00 33 1007.1
20260505203043 26 202 3.2 19.3 0.00 0.00 0.00 33 1006.8
20260505202539 26 200 6.4 24.1 0.00 0.00 0.00 33 1007.0
20260505202035 26 215 14.5 14.5 0.00 0.00 0.00 33 1007.0